This is the latest recevied weather packets stored in our database for station/object S56OA-13. If no packets are shown the sender has not sent any weather packets the latest 10 day(s).
| Time | Temp. | Humidity | Pressure | Rain* | Wind** | Luminosity | Snow |
|---|---|---|---|---|---|---|---|
| 1788497786 | 17.78° C | 41% | 868.8 hPa | - | - | - | - |
| 1788495985 | 18.33° C | 41% | 871.4 hPa | - | - | - | - |
| 1788494196 | 18.33° C | 41% | - | - | - | - | - |
| 1788494184 | 18.33° C | 41% | 871.5 hPa | - | - | - | - |
| 1788492382 | 18.33° C | 41% | 870.4 hPa | - | - | - | - |
| 1788490581 | 17.78° C | 41% | 870.1 hPa | - | - | - | - |
| 1788488779 | 18.33° C | 41% | 871.5 hPa | - | - | - | - |
| 1788486978 | 18.33° C | 41% | 871 hPa | - | - | - | - |
| 1788485177 | 18.89° C | 41% | 872.1 hPa | - | - | - | - |
| 1788483376 | 18.89° C | 41% | 873.2 hPa | - | - | - | - |
| 1788481575 | 18.33° C | 42% | 872.4 hPa | - | - | - | - |
| 1788477973 | 19.44° C | 41% | 874.2 hPa | - | - | - | - |
| 1788476180 | 19.44° C | 41% | 875.2 hPa | - | - | - | - |
| 1788474356 | 20.56° C | 41% | 877.6 hPa | - | - | - | - |
| 1788472555 | 20° C | 41% | 876.6 hPa | - | - | - | - |
| 1788470754 | 18.33° C | 41% | 871.6 hPa | - | - | - | - |
| 1788468953 | 17.78° C | 41% | 869.1 hPa | - | - | - | - |
| 1788467129 | 17.78° C | 42% | 869 hPa | - | - | - | - |
| 1788465328 | 17.78° C | 42% | 869.8 hPa | - | - | - | - |
| 1788463527 | 18.89° C | 42% | 872.1 hPa | - | - | - | - |
| 1788461726 | 18.89° C | 43% | 874 hPa | - | - | - | - |
| 1788459925 | 20° C | 43% | 876.9 hPa | - | - | - | - |
| 1788458124 | 21.11° C | 44% | 880.8 hPa | - | - | - | - |
| 1788456322 | 25° C | 43% | 894.1 hPa | - | - | - | - |
| 1788454520 | 31.67° C | 41% | 919.3 hPa | - | - | - | - |
* Rain since midnight (hover to see other rain measurements)
** Current wind speed in m/s (hover to see current wind gust speed)